Temp
68 66 65 65 64 64 63 62 62 59 59 58 57 57 55 56 55 54 53 53 52 53
66 65 64 64 64 63 64 61 60 59 59 58 57 57 55 56 55 55 54 54 53 52
64 64 64 64 63 63 62 61 59 58 57 57 57 57 55 55 55 54 55 55 53 53
61 62 61 61 61 61 60 59 59 59 58 58 58 57 55 54 55 54 54 54 53 53
60 61 59 59 59 59 59 59 60 59 59 59 58 57 56 56 57 55 54 55 54 54
61 59 59 58 59 60 60 59 59 59 59 59 59 58 57 56 56 55 54 54 54 54
59 59 59 59 59 58 58 58 58 59 59 59 59 59 58 58 56 55 55 54 55 54
58 59 58 58 57 58 58 59 59 59 59 58 58 60 57 56 55 53 53 52 52 52
58 59 59 58 58 58 58 58 58 57 57 57 57 49 50 52 52 51 49 48 48 49
60 60 59 59 58 58 58 57 55 55 55 51 50 47 48 49 48 47 46 46 46 47
61 61 60 59 58 57 56 54 54 52 50 48 48 46 45 46 46 46 45 46 45 45
62 61 60 59 58 56 54 53 50 48 46 45 44 44 44 44 45 45 44 44 46 45
62 61 59 58 56 54 53 51 48 46 45 45 43 43 43 44 45 42 42 44 45 45
60 59 58 55 54 52 50 46 44 43 43 43 43 43 42 42 43 41 41 42 43 43
MSLP
1008.06 1008.56 1009.32 1009.66 1010.02 1010.42 1010.72 1011.22 1012.20 1012.80 1013.23 1013.75 1014.05 1014.35 1014.74 1014.80 1014.90 1014.96 1015.14 1015.06 1015.10 1015.37
1008.37 1009.03 1009.12 1009.43 1009.85 1010.18 1010.71 1011.23 1012.15 1012.59 1013.06 1013.48 1013.92 1014.18 1014.32 1014.56 1014.73 1014.77 1014.49 1014.34 1014.65 1014.86
1009.51 1009.46 1009.58 1009.51 1010.12 1010.32 1010.69 1011.14 1011.76 1012.27 1012.79 1013.38 1013.78 1014.01 1014.15 1014.30 1014.28 1014.27 1014.14 1014.37 1014.40 1014.36
1012.39 1011.02 1011.39 1011.10 1011.02 1010.98 1011.02 1011.50 1012.18 1012.59 1012.84 1013.49 1013.71 1013.72 1013.72 1013.76 1013.85 1014.03 1013.87 1013.75 1013.67 1013.40
1012.92 1012.04 1010.35 1012.02 1012.07 1012.15 1012.15 1012.15 1012.47 1013.03 1012.87 1013.13 1013.19 1013.22 1013.40 1013.39 1013.46 1013.56 1013.36 1013.05 1013.13 1012.76
1009.43 1011.10 1011.21 1011.51 1012.18 1012.36 1012.81 1012.68 1012.76 1012.55 1012.77 1013.02 1013.15 1013.09 1013.23 1013.22 1013.19 1013.20 1012.88 1012.48 1012.42 1012.14
1009.31 1010.68 1010.91 1010.66 1011.77 1012.54 1012.90 1012.70 1012.60 1012.74 1012.96 1013.25 1013.17 1013.17 1013.11 1012.89 1012.71 1012.73 1012.70 1012.54 1012.41 1012.35
1010.50 1010.97 1010.98 1011.36 1011.85 1012.21 1012.69 1012.75 1012.88 1013.02 1013.27 1013.29 1013.17 1012.94 1012.95 1012.79 1012.82 1012.71 1012.59 1012.50 1012.54 1012.50
1011.30 1011.30 1011.72 1011.34 1011.90 1012.04 1012.40 1012.53 1012.74 1013.15 1013.26 1013.36 1013.36 1013.19 1012.86 1012.80 1012.83 1012.99 1013.03 1012.82 1012.69 1012.52
1011.18 1011.58 1011.76 1011.92 1012.16 1012.25 1012.36 1012.61 1012.94 1013.18 1013.30 1013.65 1013.79 1013.65 1013.55 1013.32 1013.28 1013.45 1013.32 1013.11 1013.01 1012.68
1011.06 1011.44 1011.71 1011.97 1012.23 1012.32 1012.52 1012.85 1013.09 1013.54 1013.96 1013.99 1014.03 1014.32 1014.28 1013.94 1013.68 1013.69 1013.49 1013.25 1013.14 1012.83
1010.58 1011.29 1011.60 1011.89 1012.19 1012.52 1012.72 1013.07 1013.61 1014.06 1014.35 1014.43 1014.78 1014.69 1014.61 1014.04 1014.03 1013.79 1013.61 1013.39 1013.10 1012.84
1010.90 1011.39 1011.61 1011.92 1012.36 1012.77 1013.00 1013.64 1013.91 1014.67 1014.98 1014.97 1015.02 1014.94 1014.77 1014.53 1014.38 1014.11 1013.67 1013.33 1013.01 1012.85
1011.36 1011.57 1011.94 1012.27 1012.69 1013.15 1013.36 1013.91 1014.83 1015.10 1015.33 1015.17 1015.24 1015.04 1015.07 1015.06 1014.83 1014.42 1013.90 1013.45 1013.12 1012.84
Wind_Speed
5 3 1 3 7 6 6 5 5 5 5 6 5 5 5 4 4 5 5 6 5 4
3 2 4 5 6 6 6 5 7 7 6 6 6 6 5 3 4 4 4 5 5 5
6 5 2 4 4 5 5 7 7 8 7 6 5 4 4 3 4 4 4 5 6 7
12 9 11 6 5 5 5 6 5 4 5 4 3 3 4 5 4 6 6 6 7 9
13 6 7 3 7 6 3 2 2 3 4 3 4 4 4 4 4 5 6 6 5 8
13 7 4 6 4 2 1 2 3 4 4 3 3 3 3 4 4 5 6 7 6 7
7 6 4 8 5 4 4 4 3 3 3 3 2 2 3 3 4 5 5 5 5 5
6 5 5 5 6 6 4 3 3 2 0 1 2 2 4 4 5 5 6 4 5 4
4 2 2 4 5 5 4 2 1 3 2 4 4 10 7 4 4 6 6 6 6 7
5 4 4 3 3 3 2 1 4 3 5 6 7 12 13 12 6 4 5 6 7 8
5 2 2 3 2 1 3 4 3 5 6 7 8 12 11 10 6 5 6 6 7 7
3 3 3 3 2 2 4 4 5 5 7 8 8 11 12 10 7 8 8 8 6 8
3 3 3 3 5 3 4 4 6 7 6 10 7 11 13 12 7 9 7 8 7 9
3 4 5 4 3 3 5 7 6 7 5 7 8 9 13 13 8 6 6 7 7 7
Wind_Direction
159 181 189 163 157 174 172 164 149 146 143 156 170 172 177 183 189 191 205 199 207 223
32 94 154 145 140 159 161 136 151 151 165 162 172 184 178 201 213 214 222 233 226 232
29 26 43 114 138 157 122 125 143 147 156 172 179 175 186 223 236 241 254 255 248 244
355 21 358 13 18 40 83 110 145 173 145 160 183 192 212 239 258 247 261 252 239 257
302 303 115 9 16 28 31 78 125 142 133 184 214 209 222 249 254 249 256 270 272 262
228 195 144 116 138 207 210 111 154 163 194 208 224 227 240 238 267 258 255 254 261 263
142 157 182 148 148 165 191 187 190 193 206 226 243 277 289 290 276 285 290 298 293 319
107 163 154 148 164 169 182 191 205 195 230 351 307 315 337 327 310 310 310 12 11 1
109 130 192 157 169 137 167 182 145 56 24 360 3 352 12 2 15 40 37 7 344 331
150 174 188 159 118 133 159 79 62 47 45 51 39 35 50 58 61 40 10 354 337 331
148 179 160 122 135 103 72 63 61 48 59 76 56 36 29 31 19 357 359 354 334 337
147 167 140 141 127 79 76 61 59 58 83 75 50 33 21 17 2 2 357 350 348 355
148 157 109 111 89 72 76 86 90 87 74 65 48 28 20 15 356 346 346 350 345 343
138 134 124 102 79 101 96 89 95 91 63 52 34 20 11 1 354 343 343 340 340 339